Regional Weather Roundup
Issued by NWS Nashville, TN

Home | Current Version | Previous Version | Text Only | Print | Product List | Glossary On
Versions: 1 2 3 4 5 6 7 8 9 10 11 12 13 14 15 16 17 18 19 20 21 22 23 24 25 26 27 28 29 30 31 32 33 34 35 36 37 38 39 40 41 42 43 44 45 46 47 48 49 50
000
ASUS44 KOHX 051610
RWROHX
MIDDLE TENNESSEE HOURLY WEATHER ROUNDUP
NATIONAL WEATHER SERVICE NASHVILLE TN
1100 AM CDT SAT SEP 05 2015

NOTE: "FAIR" INDICATES FEW OR NO CLOUDS BELOW 12,000 FEET WITH
NO SIGNIFICANT WEATHER AND/OR OBSTRUCTIONS TO VISIBILITY.

* THESE REPORTS ARE NOT UNDER NWS QUALITY CONTROL AND MAY NOT
  REPORT WEATHER SUCH AS PRECIPITATION AND FOG.


TNZ005>011-023>034-057-059-062>066-078-080-051700
...NORTHERN MIDDLE TENNESSEE...

CITY           SKY/WX    TMP DP  RH WIND       PRES   REMARKS
CLARKSVILLE    SUNNY     89  67  47 SE5       30.12S HX  92
CROSSVILLE     SUNNY     82  65  56 VRB3      30.20S
DICKSON        SUNNY     86  68  54 E3        30.13R
LIVINGSTON     SUNNY     88  67  49 CALM      30.17  HX  91
NASHVILLE      MOSUNNY   88  66  48 S3        30.13R HX  90
ROCKWOOD       SUNNY     80  67  64 VRB5      30.20
SMYRNA         SUNNY     32  32 100 CALM      30.13R
$$
TNZ056-058-060-061-075>077-079-093>097-051700
...SOUTHERN MIDDLE TENNESSEE...

CITY           SKY/WX    TMP DP  RH WIND       PRES   REMARKS
COLUMBIA       SUNNY     88  73  62 CALM      30.10S HX  96
LEWISBURG      SUNNY     87  70  57 CALM      30.12R HX  92
MCMINNVILLE    SUNNY     86  72  62 SE6       30.15S HX  92
SHELBYVILLE    SUNNY     86  72  62 E6        30.14S HX  92
TULLAHOMA      SUNNY     82  68  61 SE8       30.16S
WINCHESTER     SUNNY     82  70  65 SE9       30.14S
$$


...KEY TO REMARKS...
VSB - VISIBILITY IN MILES
WCI - WIND CHILL INDEX
HX  - HEAT INDEX



USA.gov is the U.S. government's official web portal to all federal, state and local government web resources and services.